THORAD AGENA D DEB

Satellite information

Favourite Embed

Satellite Type and Status

DEBRISIN ORBIT

Key statistics

Satellite THORAD AGENA D DEB at a glance.

Uptime

20296

Days in orbit

Revolutions

≈ 12.9

Per day

Orbit

SSO

Sun Synchronous Orbit

Inclination

99.8

Latest

Satellite identification and parameters

Extended collection of information and parameters for THORAD AGENA D DEB.

Object identification

Identified? True

Debris? True

Object name: THORAD AGENA D DEB

International designator: 1970-025KG

Object number (NORAD): 5220

Object ID (CCSDS): 5220

Country: UNITED STATES OF AMERICA (US)

Current information (Y/N): Y

RCS size: SMALL

Orbital parameters

Period: 111.419 minutes

Inclination: 99.8452 deg

SMA: 7670.074 km

Apoapsis: 1589.073 km

Periapsis: 994.805 km

RAAN: 205.7035 deg

Eccentricy: 0.0387394

Argument of periapsis: 156.648 deg

Mean anomaly: 265.6045 deg

Mean motion: 12.92419319 rev/day

Mean motion (dot): 0.00001211 rev/day2

B* drag term: 0.0032953 1/REarth

Two-line elements (TLE)

Creation date: Oct. 31, 2025, 6:16 p.m.

Reference frame: TEME

Reference center: EARTH

Epoch: Oct. 31, 2025, 4:29 p.m. UTC

TLE line 0: 0 THORAD AGENA D DEB

TLE line 1: 1 5220U 70025KG 25304.68744208 .00001211 00000-0 32953-2 0 9995

TLE line 2: 2 5220 99.8452 205.7035 0387394 156.6480 265.6045 12.92419319601976

Live tracking on map

Real-time ground track for satellite THORAD AGENA D DEB.

In-orbit conjunctions

A list of the most updated potential collisions computed for object THORAD AGENA D DEB.

Target Orbit TCA Probability of collision Miss distance Type
PEGASUS DEB LEO 2025-06-20 20:02:29 0.0003017943 32.0 (m) DEBRIS
SL-8 DEB LEO 2024-09-29 00:36:59 0.001145234 242.0 (m) DEBRIS

Associated space launch

Meteorological research and development satellite

THORAD AGENA D DEB was lifted into orbit during the mission ‘Thorad SLV-2G Agena D | Nimbus 4’, on board a Thorad SLV-2G Agena D space rocket.

The launch took place on April 8, 1970, 8:17 a.m. from Space Launch Complex 2E.

For more information about the launch, click the button.

Launch to space Thorad SLV-2G Agena D | Nimbus 4
Thorad SLV-2G Agena D | Nimbus 4

Agency: N/A

Status: Launch Successful

Launch date: April 8, 1970, 8:17 a.m. UTC

Rocket: Thorad SLV-2G Agena D

Launch pad: Space Launch Complex 2E

Location: Vandenberg SFB, CA, USA

...

Latest news about this satellite

There are no fresh news available about this satellite. Check back as we update our databases every day.


Newsletter sign-up

Weekly statistics, charts and insights to help you stay on top of the space industry.